Regional Weather Roundup
Issued by NWS

Home | Current Version | Previous Version | Text Only | Print | Product List | Glossary Off
Versions: 1 2 3 4 5 6 7 8 9 10 11 12 13 14 15 16 17 18 19 20 21 22 23 24 25 26 27 28 29 30 31 32 33 34 35 36 37 38 39 40 41 42 43 44 45 46 47 48 49 50

000
ASUS43 KMPX 182010
RWRMN
WEATHER ROUNDUP FOR MINNESOTA
NATIONAL WEATHER SERVICE TWIN CITIES/CHANHASSEN MN
200 PM CST SAT FEB 18 2017


NOTE: "FAIR" INDICATES FEW OR NO CLOUDS BELOW 12,000 FEET WITH NO
SIGNIFICANT WEATHER AND/OR OBSTRUCTIONS TO VISIBILITY. N/A MEANS
CURRENT SKY AND/OR WEATHER CONDITIONS ARE NOT AVAILABLE.

MNZ060>063-068>070-182100-
   Twin Cities Metro

CITY           SKY/WX    TMP DP  RH WIND       PRES   REMARKS
TWIN CITIES    PTSUNNY   56  35  45 VRB3      29.77F
ST PAUL        CLOUDY    57  32  38 VRB3      29.77S
CRYSTAL        MOSUNNY   57  31  37 SW7       29.76S
BLAINE         MOSUNNY   59  34  38 W3        29.77R
LAKEVILLE      MOSUNNY   54  37  54 SW3       29.78S
EDEN PRAIRIE   SUNNY     55  37  50 S7        29.76F
SOUTH ST PAUL  MOSUNNY   56  35  45 CALM      29.77S
LAKE ELMO      FAIR      55  36  47 W5        29.78S
$$
MNZ001>005-007-008-013>017-022>024-027-028-182100-
   Northwest Minnesota

CITY           SKY/WX    TMP DP  RH WIND       PRES   REMARKS
BEMIDJI        MOSUNNY   44  32  63 W13       29.70S
HALLOCK        MOSUNNY   37  34  87 NW6       29.69F
ROSEAU         SUNNY     43  34  70 W10       29.68R
WARROAD        SUNNY     43  34  70 SW14      29.66R
THIEF RVR FALL SUNNY     39  32  76 W9        29.72F
CROOKSTON      MOSUNNY   37  36  93 SW6       29.74S
FOSSTON        SUNNY     39  32  75 S8        29.73S
DETROIT LAKES  MOSUNNY   45  36  70 SW5       29.75S
MOORHEAD       CLOUDY    45  37  76 SW5       29.76S
PARK RAPIDS    MOSUNNY   42  31  64 SW8       29.72F
MAHNOMEN       FAIR      40  36  84 SW7       29.73S
$$
MNZ006-009>011-018-025>026-182100-
   North Central Minnesota

CITY           SKY/WX    TMP DP  RH WIND       PRES   REMARKS
BAUDETTE       SUNNY     45  31  58 W12       29.64R
FLAG ISLAND    SUNNY     46  28  49 W22       29.60R
INTL FALLS     SUNNY     50  31  48 W10G17    29.60F
WASKISH        SUNNY     43  34  70 SW14G20   29.68R
BIG FORK       SUNNY     54  34  47 W8G16     29.65S
LONGVILLE      MOSUNNY   52  30  43 SW6       29.70S
GRAND RAPIDS   MOSUNNY   51  31  46 W12       29.70S
CRANE LAKE     SUNNY     52  30  43 W8G18     29.62R
ORR            SUNNY     52  28  40 W12G18    29.60S
COOK           MOSUNNY   52  32  46 W14G20    29.63S
WALKER         FAIR      52  26  37 W17       29.70S
$$
MNZ012-019>021-037-182100-
   Northeast Minnesota

CITY           SKY/WX    TMP DP  RH WIND       PRES   REMARKS
DULUTH         SUNNY     50  32  50 W16       29.66S
ELY            SUNNY     48  30  49 W18G24    29.61R
HIBBING        SUNNY     49  31  49 W12G20    29.65S
EVELETH        SUNNY     47  28  47 W13G21    29.66S
DULUTH HARBOR  SUNNY     52  36  54 SW12      29.67S
TWO HARBORS    SUNNY     55  37  50 W13G18    29.63R
GRAND MARAIS     N/A     48  35  60 MISG      29.56R
G MARAIS ARPRT SUNNY     50  28  43 W10G16    29.56S
$$
MNZ029>031-032-039>041-046>048-054>057-064-182100-
   West Central Minnesota

CITY           SKY/WX    TMP DP  RH WIND       PRES   REMARKS
FERGUS FALLS   SUNNY     46  39  76 W5        29.80R
WHEATON        CLOUDY    54  39  58 CALM      29.78S
MORRIS         CLOUDY    52  43  71 SW8       29.77R
ALEXANDRIA     MOSUNNY   48  38  68 SW9       29.77S
ELBOW LAKE     FAIR      47  40  76 SW7       29.77S
WADENA         MOSUNNY   46  36  66 NW5       29.73F
GLENWOOD       SUNNY     52  41  66 W7        29.77S
APPLETON       MOSUNNY   54  37  54 SW3       29.77F
BENSON         CLOUDY    54  36  50 W7        29.80S
ORTONVILLE       N/A     54  39  58 CALM      29.76F
WILLMAR        FAIR      52  45  76 CALM      29.80S
$$
MNZ033>034-036-042>043-049>051-058-059-182100-
   Central Minnesota

CITY           SKY/WX    TMP DP  RH WIND       PRES   REMARKS
ST CLOUD       SUNNY     55  37  50 W7        29.75S
SAUK CENTRE    FAIR      50  41  70 SW7       29.76F
PAYNESVILLE    CLOUDY    51  40  65 SW5       29.77S
AITKIN         MOSUNNY   54  28  37 W6        29.70F
PINE RIVER     CLOUDY    48  34  57 W5        29.76S
BRAINERD       PTSUNNY   50  31  48 W9        29.72F
STAPLES        PTSUNNY   46  34  61 W6        29.73F
LONG PRAIRIE   FAIR      50  37  62 SW7       29.75S
LITTLE FALLS   MOSUNNY   54  34  47 W7        29.74S
LITCHFIELD     SUNNY     55  39  54 SW3       29.78S
BUFFALO        SUNNY     52  37  56 SW5       29.78F
MAPLE LAKE     SUNNY     54  40  60 SW6       29.78S
HUTCHINSON     MOSUNNY   55  41  60 W6        29.80R
$$
MNZ037-044-045-052-053-182100-
   East Central Minnesota

CITY           SKY/WX    TMP DP  RH WIND       PRES   REMARKS
PRINCETON      SUNNY     57  36  44 W5        29.75S
MORA           CLOUDY    54  30  40 W7        29.75S
CAMBRIDGE      PTSUNNY   59  37  44 W6        29.73S
RUSH CITY      CLOUDY    54  34  47 W6        29.74F
MOOSE LAKE     MOSUNNY   54  30  40 W13       29.69S
HINCKLEY       FAIR      54  32  43 W12       29.73S
CLOQUET        SUNNY     52  28  40 SW12      29.68S
MCGREGOR       MOSUNNY   50  32  50 W10       29.71S
$$
MNZ071>073-080-081-089-090-097-098-182100-
   Southwest Minnesota

CITY           SKY/WX    TMP DP  RH WIND       PRES   REMARKS
MONTEVIDEO     MOSUNNY   55  46  71 W3        29.80S
GRANITE FALLS  SUNNY     57  42  56 CALM      29.80F
CANBY          MOSUNNY   59  38  45 CALM      29.78F
MARSHALL       SUNNY     57  37  47 CALM      29.78F
REDWOOD FALLS  SUNNY     56  36  47 VRB3      29.78F
OLIVIA         SUNNY     54  41  62 SW5       29.78F
PIPESTONE      SUNNY     55  36  47 CALM      29.78S
WINDOM         SUNNY     59  37  44 CALM      29.79S
WORTHINGTON    SUNNY     55  39  54 CALM      29.80F
JACKSON        SUNNY     54  36  50 CALM      29.80S
TRACY          SUNNY     58  40  51 CALM      29.78F
SLAYTON        SUNNY     58  37  46 S3        29.79F
$$
MNZ065>067-074>077-082>085-091>093-182100-
   South Central Minnesota

CITY           SKY/WX    TMP DP  RH WIND       PRES   REMARKS
MANKATO          N/A     54  39  57 SW5       29.80S
NEW ULM        SUNNY     54  39  58 CALM      29.79S
ST JAMES       SUNNY     55  39  54 CALM      29.80F
FAIRMONT       SUNNY     54  41  61 CALM      29.80F
GLENCOE        SUNNY     55  43  65 SW3       29.78S
FARIBAULT      SUNNY     54  39  58 SW5       29.79F
OWATONNA       SUNNY     54  37  54 W3        29.79S
WASECA         SUNNY     52  39  62 W3        29.81S
ALBERT LEA     SUNNY     54  41  62 CALM      29.79S
$$
MNZ078>079-086>088-094>096-182100-
   Southeast Minnesota

CITY           SKY/WX    TMP DP  RH WIND       PRES   REMARKS
ROCHESTER      SUNNY     52  42  69 NW5       29.78F
RED WING       CLOUDY    54  34  47 W5        29.77F
STANTON        MOSUNNY   55  38  52 W3        29.77S
DODGE CENTER   MOSUNNY   54  39  58 NW3       29.78S
WINONA         MOSUNNY   55  36  47 N3        29.77F
AUSTIN         SUNNY     54  39  58 NW3       29.78F
PRESTON        SUNNY     52  39  61 W3        29.78S
$$
ABBREVIATIONS USED IN REMARKS
   TC - TEMPERATURES IN CELSIUS
  WCI - WIND CHILL INDEX
   HX - HEAT INDEX
  VSB - VISIBILITY
$$




USA.gov is the U.S. government's official web portal to all federal, state and local government web resources and services.